,,,PA_Meas_PMT16A,,PR_Meas_QMR101_102,,RH_Meas_QMH101,,SR_Meas_QMS101,,TA_Meas_QMH101,,GenWind,,GenWind,
date,time,status,PA,status,PR,status,RH,status,SR,status,TA,status,DirAvg,status,SpdAvg,
2010-10-22, 00:00:04,VALID,999.487,VALID,0,VALID,88.0534,VALID,0,VALID,24.2458,VALID,65,VALID,0.672266,
2010-10-22, 00:01:04,VALID,999.451,VALID,0,VALID,88.2976,VALID,0,VALID,24.2653,VALID,65,VALID,0.699609,
2010-10-22, 00:02:04,VALID,999.44,VALID,0,VALID,88.3892,VALID,0,VALID,24.2458,VALID,65,VALID,0.525781,
2010-10-22, 00:03:04,VALID,999.419,VALID,0,VALID,88.4197,VALID,0,VALID,24.2263,VALID,65,VALID,0.603125,
2010-10-22, 00:04:04,VALID,999.39,VALID,0,VALID,88.4044,VALID,0,VALID,24.1872,VALID,66,VALID,0.632813,
2010-10-22, 00:05:04,VALID,999.349,VALID,0,VALID,88.3663,VALID,0,VALID,24.1677,VALID,87,VALID,0.695313,
2010-10-22, 00:06:04,VALID,999.276,VALID,0,VALID,88.4197,VALID,0,VALID,24.1872,VALID,93,VALID,0.975781,
2010-10-22, 00:07:04,VALID,999.251,VALID,0,VALID,88.4349,VALID,0,VALID,24.1677,VALID,105,VALID,1.07461,
2010-10-22, 00:08:04,VALID,999.171,VALID,0,VALID,88.3357,VALID,0.112286,VALID,24.1677,VALID,110,VALID,0.915234,
2010-10-22, 00:09:04,VALID,999.138,VALID,0,VALID,88.2823,VALID,0,VALID,24.1872,VALID,108,VALID,0.955078,
2010-10-22, 00:10:04,VALID,999.119,VALID,0,VALID,88.3434,VALID,0,VALID,24.1872,VALID,104,VALID,0.927734,
2010-10-22, 00:11:04,VALID,999.089,VALID,0,VALID,88.3281,VALID,0,VALID,24.2067,VALID,110,VALID,0.496094,
2010-10-22, 00:12:04,VALID,999.083,VALID,0,VALID,88.3663,VALID,0,VALID,24.1872,VALID,110,VALID,0.478906,
2010-10-22, 00:13:04,VALID,999.102,VALID,0,VALID,88.3968,VALID,0,VALID,24.1872,VALID,110,VALID,0.296094,
2010-10-22, 00:14:04,VALID,999.102,VALID,0,VALID,88.4426,VALID,0,VALID,24.1677,VALID,110,VALID,0.0511719,
2010-10-22, 00:15:04,VALID,999.096,VALID,0,VALID,88.5112,VALID,0,VALID,24.1677,VALID,110,VALID,0.217187,
2010-10-22, 00:16:04,VALID,999.074,VALID,0,VALID,88.6028,VALID,0,VALID,24.1464,VALID,110,VALID,0.0714844,
2010-10-22, 00:17:04,VALID,999.094,VALID,0,VALID,88.6333,VALID,0,VALID,24.1482,VALID,110,VALID,0.0238281,
2010-10-22, 00:18:04,VALID,999.067,VALID,0,VALID,88.6638,VALID,0,VALID,24.1482,VALID,110,VALID,0.31875,
2010-10-22, 00:19:04,VALID,999.056,VALID,0,VALID,88.6867,VALID,0.112286,VALID,24.1482,VALID,110,VALID,0.0328125,
2010-10-22, 00:20:04,VALID,999.08,VALID,0,VALID,88.7249,VALID,0,VALID,24.1482,VALID,110,VALID,0.215234,
2010-10-22, 00:21:04,VALID,999.079,VALID,0,VALID,88.8164,VALID,0,VALID,24.1482,VALID,110,VALID,0.119531,
2010-10-22, 00:22:04,VALID,999.09,VALID,0,VALID,88.8393,VALID,0,VALID,24.1482,VALID,110,VALID,0,
2010-10-22, 00:23:04,VALID,999.074,VALID,0,VALID,88.8088,VALID,0,VALID,24.1696,VALID,110,VALID,0,
2010-10-22, 00:24:04,VALID,999.043,VALID,0,VALID,88.7401,VALID,0,VALID,24.1482,VALID,110,VALID,0,
2010-10-22, 00:25:04,VALID,999,VALID,0,VALID,88.6104,VALID,0,VALID,24.1287,VALID,110,VALID,0.0597656,
2010-10-22, 00:26:04,VALID,998.992,VALID,0,VALID,88.5875,VALID,0,VALID,24.1482,VALID,110,VALID,0.230859,
2010-10-22, 00:27:04,VALID,998.955,VALID,0,VALID,88.6714,VALID,0,VALID,24.1696,VALID,110,VALID,0.157813,
2010-10-22, 00:28:04,VALID,998.948,VALID,0,VALID,88.6638,VALID,0,VALID,24.1482,VALID,110,VALID,0.433203,
2010-10-22, 00:29:04,VALID,998.922,VALID,0,VALID,88.5112,VALID,0.112286,VALID,24.1677,VALID,110,VALID,0.433594,
2010-10-22, 00:30:04,VALID,998.919,VALID,0,VALID,88.1068,VALID,0,VALID,24.1872,VALID,108,VALID,0.648828,
2010-10-22, 00:31:04,VALID,998.889,VALID,0,VALID,88.0077,VALID,0,VALID,24.2067,VALID,107,VALID,0.333203,
2010-10-22, 00:32:04,VALID,998.896,VALID,0,VALID,88.3129,VALID,0.112286,VALID,24.2049,VALID,108,VALID,0.230469,
2010-10-22, 00:33:04,VALID,998.89,VALID,0,VALID,88.5112,VALID,0.112286,VALID,24.2049,VALID,107,VALID,0.204688,
2010-10-22, 00:34:04,VALID,998.89,VALID,0,VALID,88.6943,VALID,0,VALID,24.2086,VALID,108,VALID,0.158203,
2010-10-22, 00:35:04,VALID,998.885,VALID,0,VALID,88.8546,VALID,0,VALID,24.1677,VALID,65,VALID,0.512109,
2010-10-22, 00:36:04,VALID,998.881,VALID,0,VALID,89.2666,VALID,0,VALID,24.1287,VALID,39,VALID,0.544922,
2010-10-22, 00:37:04,VALID,998.853,VALID,0,VALID,89.4954,VALID,0,VALID,24.15,VALID,39,VALID,0.339453,
2010-10-22, 00:38:04,VALID,998.839,VALID,0,VALID,89.6099,VALID,0,VALID,24.111,VALID,39,VALID,0.408203,
2010-10-22, 00:39:04,VALID,998.837,VALID,0,VALID,89.7625,VALID,0,VALID,24.0915,VALID,39,VALID,0.228516,
2010-10-22, 00:40:04,VALID,998.826,VALID,0,VALID,89.8998,VALID,0,VALID,24.0506,VALID,39,VALID,0.219531,
2010-10-22, 00:41:04,VALID,998.818,VALID,0,VALID,90.0371,VALID,0,VALID,24.0329,VALID,39,VALID,0.152344,
2010-10-22, 00:42:04,VALID,998.805,VALID,0,VALID,90.2126,VALID,0,VALID,24.0329,VALID,39,VALID,0.246875,
2010-10-22, 00:43:04,VALID,998.772,VALID,0,VALID,90.3194,VALID,0,VALID,24.0329,VALID,39,VALID,0.078125,
2010-10-22, 00:44:04,VALID,998.773,VALID,0,VALID,90.4263,VALID,0,VALID,24.0134,VALID,39,VALID,0.0363281,
2010-10-22, 00:45:04,VALID,998.701,VALID,0,VALID,90.5178,VALID,0,VALID,23.9939,VALID,39,VALID,0,
2010-10-22, 00:46:04,VALID,998.672,VALID,0,VALID,90.5483,VALID,0,VALID,23.9744,VALID,39,VALID,0,
2010-10-22, 00:47:04,VALID,998.653,VALID,0,VALID,90.5941,VALID,0,VALID,23.9549,VALID,39,VALID,0,
2010-10-22, 00:48:04,VALID,998.61,VALID,0,VALID,90.6246,VALID,0,VALID,23.9354,VALID,39,VALID,0,
2010-10-22, 00:49:04,VALID,998.609,VALID,0,VALID,90.5788,VALID,0,VALID,23.9159,VALID,39,VALID,0,
2010-10-22, 00:50:04,VALID,998.589,VALID,0,VALID,90.5865,VALID,0,VALID,23.8768,VALID,39,VALID,0,
2010-10-22, 00:51:04,VALID,998.549,VALID,0,VALID,90.7925,VALID,0,VALID,23.9159,VALID,39,VALID,0,
2010-10-22, 00:52:04,VALID,998.546,VALID,0,VALID,90.968,VALID,0,VALID,23.9354,VALID,39,VALID,0,
2010-10-22, 00:53:04,VALID,998.525,VALID,0,VALID,91.0443,VALID,0,VALID,23.9354,VALID,39,VALID,0,
2010-10-22, 00:54:04,VALID,998.512,VALID,0,VALID,91.0595,VALID,0,VALID,23.9744,VALID,39,VALID,0.06875,
2010-10-22, 00:55:04,VALID,998.506,VALID,0,VALID,90.8077,VALID,0,VALID,23.9744,VALID,39,VALID,0,
2010-10-22, 00:56:04,VALID,998.49,VALID,0,VALID,90.472,VALID,0,VALID,23.9549,VALID,39,VALID,0,
2010-10-22, 00:57:04,VALID,998.505,VALID,0,VALID,90.1897,VALID,0,VALID,23.9549,VALID,39,VALID,0.158203,
2010-10-22, 00:58:04,VALID,998.499,VALID,0,VALID,89.9914,VALID,0,VALID,23.9744,VALID,39,VALID,0.178125,
2010-10-22, 00:59:04,VALID,998.517,VALID,0,VALID,89.8083,VALID,0,VALID,24.0153,VALID,39,VALID,0.130859,
2010-10-22, 01:00:04,VALID,998.526,VALID,0,VALID,89.6099,VALID,0,VALID,23.9957,VALID,69,VALID,0.396875,
2010-10-22, 01:01:04,VALID,998.537,VALID,0,VALID,88.8317,VALID,0,VALID,23.9744,VALID,128,VALID,0.673828,
2010-10-22, 01:02:04,VALID,998.51,VALID,0,VALID,88.1526,VALID,0,VALID,23.9939,VALID,128,VALID,0.629687,
2010-10-22, 01:03:04,VALID,998.524,VALID,0,VALID,87.7559,VALID,0,VALID,24.0329,VALID,130,VALID,0.757813,
2010-10-22, 01:04:04,VALID,998.501,VALID,0,VALID,87.4507,VALID,0,VALID,24.0933,VALID,130,VALID,0.771094,
2010-10-22, 01:05:04,VALID,998.5,VALID,0,VALID,87.2905,VALID,0,VALID,24.1324,VALID,130,VALID,0.907812,
2010-10-22, 01:06:04,VALID,998.478,VALID,0,VALID,87.1303,VALID,0,VALID,24.111,VALID,127,VALID,0.533203,
2010-10-22, 01:07:04,VALID,998.447,VALID,0,VALID,87.0311,VALID,0,VALID,24.1305,VALID,127,VALID,0.520312,
2010-10-22, 01:08:04,VALID,998.438,VALID,0,VALID,86.9624,VALID,0,VALID,24.1287,VALID,127,VALID,0.279687,
2010-10-22, 01:09:04,VALID,998.4,VALID,0,VALID,86.764,VALID,0,VALID,24.1696,VALID,127,VALID,0.534766,
2010-10-22, 01:10:04,VALID,998.389,VALID,0,VALID,86.4207,VALID,0,VALID,24.2086,VALID,139,VALID,0.645703,
2010-10-22, 01:11:04,VALID,998.373,VALID,0,VALID,86.2605,VALID,0,VALID,24.2086,VALID,153,VALID,1.08789,
2010-10-22, 01:12:04,VALID,998.367,VALID,0,VALID,85.8409,VALID,0,VALID,24.2653,VALID,154,VALID,1.08086,
2010-10-22, 01:13:04,VALID,998.356,VALID,0,VALID,85.673,VALID,0,VALID,24.3238,VALID,154,VALID,0.842578,
2010-10-22, 01:14:04,VALID,998.359,VALID,0,VALID,85.528,VALID,0,VALID,24.3043,VALID,152,VALID,1.05781,
2010-10-22, 01:15:04,VALID,998.339,VALID,0,VALID,85.4212,VALID,0,VALID,24.3433,VALID,149,VALID,0.632422,
2010-10-22, 01:16:04,VALID,998.335,VALID,0,VALID,85.3983,VALID,0,VALID,24.3433,VALID,148,VALID,0.731641,
2010-10-22, 01:17:04,VALID,998.331,VALID,0,VALID,85.2381,VALID,0,VALID,24.3647,VALID,148,VALID,0.570703,
2010-10-22, 01:18:04,VALID,998.31,VALID,0,VALID,84.9558,VALID,0,VALID,24.3238,VALID,148,VALID,0.737109,
2010-10-22, 01:19:04,VALID,998.298,VALID,0,VALID,84.9787,VALID,0,VALID,24.3452,VALID,146,VALID,0.71875,
2010-10-22, 01:20:04,VALID,998.289,VALID,0,VALID,84.91,VALID,0,VALID,24.3238,VALID,141,VALID,0.717969,
2010-10-22, 01:21:04,VALID,998.258,VALID,0,VALID,84.8337,VALID,0,VALID,24.3433,VALID,140,VALID,0.701953,
2010-10-22, 01:22:04,VALID,998.272,VALID,0,VALID,84.9253,VALID,0,VALID,24.3238,VALID,140,VALID,0.530859,
2010-10-22, 01:23:04,VALID,998.283,VALID,0,VALID,84.9787,VALID,0,VALID,24.3257,VALID,140,VALID,0.657422,
2010-10-22, 01:24:04,VALID,998.258,VALID,0,VALID,84.994,VALID,0,VALID,24.2848,VALID,140,VALID,0.492969,
2010-10-22, 01:25:04,VALID,998.229,VALID,0,VALID,84.8643,VALID,0,VALID,24.2848,VALID,120,VALID,0.627734,
2010-10-22, 01:26:04,VALID,998.233,VALID,0,VALID,84.9253,VALID,0,VALID,24.3062,VALID,120,VALID,0.535937,
2010-10-22, 01:27:04,VALID,998.184,VALID,0,VALID,84.9863,VALID,0,VALID,24.2866,VALID,120,VALID,0.350391,
2010-10-22, 01:28:04,VALID,998.182,VALID,0,VALID,84.9863,VALID,0,VALID,24.2653,VALID,120,VALID,0.468359,
2010-10-22, 01:29:04,VALID,998.134,VALID,0,VALID,85.0626,VALID,0,VALID,24.2671,VALID,120,VALID,0.594141,
2010-10-22, 01:30:04,VALID,998.093,VALID,0,VALID,85.1618,VALID,0,VALID,24.2476,VALID,120,VALID,0.585547,
2010-10-22, 01:31:04,VALID,998.071,VALID,0,VALID,85.1237,VALID,0,VALID,24.2067,VALID,120,VALID,0.752344,
2010-10-22, 01:32:04,VALID,998.029,VALID,0,VALID,85.1618,VALID,0,VALID,24.2067,VALID,120,VALID,0.718359,
2010-10-22, 01:33:04,VALID,998.011,VALID,0,VALID,85.3983,VALID,0,VALID,24.2281,VALID,120,VALID,1.14844,
2010-10-22, 01:34:04,VALID,997.975,VALID,0,VALID,85.7493,VALID,0,VALID,24.2086,VALID,120,VALID,0.936719,
2010-10-22, 01:35:04,VALID,997.953,VALID,0,VALID,86.2071,VALID,0,VALID,24.1872,VALID,113,VALID,0.966406,
2010-10-22, 01:36:04,VALID,997.953,VALID,0,VALID,86.642,VALID,0,VALID,24.15,VALID,114,VALID,0.864844,
2010-10-22, 01:37:04,VALID,997.939,VALID,0,VALID,87.054,VALID,0,VALID,24.0701,VALID,118,VALID,1.05859,
2010-10-22, 01:38:04,VALID,997.953,VALID,0,VALID,87.3973,VALID,0,VALID,24.0311,VALID,115,VALID,1.24844,
2010-10-22, 01:39:04,VALID,997.942,VALID,0,VALID,87.6109,VALID,0,VALID,24.0329,VALID,106,VALID,0.963281,
2010-10-22, 01:40:04,VALID,997.918,VALID,0,VALID,87.7177,VALID,0,VALID,23.9921,VALID,108,VALID,1.25156,
2010-10-22, 01:41:04,VALID,997.872,VALID,0,VALID,87.8856,VALID,0,VALID,23.9921,VALID,112,VALID,1.25312,
2010-10-22, 01:42:04,VALID,997.88,VALID,0,VALID,87.9161,VALID,0.112286,VALID,23.9726,VALID,111,VALID,1.11758,
2010-10-22, 01:43:04,VALID,997.835,VALID,0,VALID,87.9314,VALID,0,VALID,23.9726,VALID,106,VALID,0.65625,
2010-10-22, 01:44:04,VALID,997.837,VALID,0,VALID,88.0534,VALID,0,VALID,23.9531,VALID,101,VALID,0.552344,
2010-10-22, 01:45:04,VALID,997.791,VALID,0,VALID,88.1755,VALID,0,VALID,23.9531,VALID,77,VALID,0.519531,
2010-10-22, 01:46:04,VALID,997.8,VALID,0,VALID,88.3052,VALID,0,VALID,23.914,VALID,76,VALID,0.285547,
2010-10-22, 01:47:04,VALID,997.796,VALID,0,VALID,88.0992,VALID,0,VALID,23.8945,VALID,74,VALID,0.596484,
2010-10-22, 01:48:04,VALID,997.784,VALID,0,VALID,87.9009,VALID,0,VALID,23.875,VALID,74,VALID,0.396484,
2010-10-22, 01:49:04,VALID,997.796,VALID,0,VALID,87.9466,VALID,0,VALID,23.8555,VALID,74,VALID,0.163672,
2010-10-22, 01:50:04,VALID,997.799,VALID,0,VALID,87.9237,VALID,0,VALID,23.836,VALID,74,VALID,0.246875,
2010-10-22, 01:51:04,VALID,997.781,VALID,0,VALID,87.9543,VALID,0,VALID,23.8378,VALID,74,VALID,0.139453,
2010-10-22, 01:52:04,VALID,997.782,VALID,0,VALID,87.9848,VALID,0,VALID,23.797,VALID,74,VALID,0,
2010-10-22, 01:53:04,VALID,997.799,VALID,0,VALID,87.9771,VALID,0,VALID,23.7988,VALID,74,VALID,0,
2010-10-22, 01:54:04,VALID,997.796,VALID,0,VALID,87.9771,VALID,0,VALID,23.7775,VALID,74,VALID,0,
2010-10-22, 01:55:04,VALID,997.809,VALID,0,VALID,88,VALID,0,VALID,23.7579,VALID,74,VALID,0,
2010-10-22, 01:56:04,VALID,997.775,VALID,0,VALID,88.0916,VALID,0,VALID,23.7579,VALID,74,VALID,0,
2010-10-22, 01:57:04,VALID,997.771,VALID,0,VALID,88.1221,VALID,0,VALID,23.7579,VALID,74,VALID,0,
2010-10-22, 01:58:04,VALID,997.733,VALID,0,VALID,88.0687,VALID,0,VALID,23.7384,VALID,74,VALID,0,
2010-10-22, 01:59:04,VALID,997.761,VALID,0,VALID,88.2442,VALID,0,VALID,23.7384,VALID,74,VALID,0.0929687,
2010-10-22, 02:00:04,VALID,997.698,VALID,0,VALID,88.3815,VALID,0,VALID,23.7384,VALID,114,VALID,0.683594,
2010-10-22, 02:01:04,VALID,997.713,VALID,0,VALID,88.4502,VALID,0,VALID,23.7775,VALID,107,VALID,0.554297,
2010-10-22, 02:02:04,VALID,997.656,VALID,0,VALID,88.5036,VALID,0,VALID,23.797,VALID,107,VALID,0.594922,
2010-10-22, 02:03:04,VALID,997.648,VALID,0,VALID,88.5723,VALID,0,VALID,23.797,VALID,107,VALID,0.442578,
2010-10-22, 02:04:04,VALID,997.646,VALID,0,VALID,88.6714,VALID,0,VALID,23.8165,VALID,107,VALID,0.336328,
2010-10-22, 02:05:04,VALID,997.632,VALID,0,VALID,88.6867,VALID,0,VALID,23.8165,VALID,107,VALID,0.190234,
2010-10-22, 02:06:04,VALID,997.656,VALID,0,VALID,88.7477,VALID,0,VALID,23.8165,VALID,107,VALID,0.00507812,
2010-10-22, 02:07:04,VALID,997.62,VALID,0,VALID,88.8393,VALID,0,VALID,23.8165,VALID,107,VALID,0.0140625,
2010-10-22, 02:08:04,VALID,997.575,VALID,0,VALID,88.8698,VALID,0,VALID,23.8378,VALID,107,VALID,0,
2010-10-22, 02:09:04,VALID,997.585,VALID,0,VALID,88.9003,VALID,0,VALID,23.8573,VALID,107,VALID,0,
2010-10-22, 02:10:04,VALID,997.551,VALID,0,VALID,88.8698,VALID,0,VALID,23.8768,VALID,107,VALID,0,
2010-10-22, 02:11:04,VALID,997.592,VALID,0,VALID,88.8393,VALID,0,VALID,23.8982,VALID,107,VALID,0.0585938,
2010-10-22, 02:12:04,VALID,997.57,VALID,0,VALID,88.7783,VALID,0,VALID,23.8963,VALID,107,VALID,0,
2010-10-22, 02:13:04,VALID,997.591,VALID,0,VALID,88.763,VALID,0,VALID,23.8963,VALID,107,VALID,0,
2010-10-22, 02:14:04,VALID,997.605,VALID,0,VALID,88.7477,VALID,0,VALID,23.8963,VALID,107,VALID,0,
2010-10-22, 02:15:04,VALID,997.614,VALID,0,VALID,88.702,VALID,0,VALID,23.8768,VALID,107,VALID,0.00195313,
2010-10-22, 02:16:04,VALID,997.606,VALID,0,VALID,88.702,VALID,0,VALID,23.8768,VALID,107,VALID,0.0324219,
2010-10-22, 02:17:04,VALID,997.558,VALID,0,VALID,88.7401,VALID,0,VALID,23.8768,VALID,107,VALID,0.0535156,
2010-10-22, 02:18:04,VALID,997.571,VALID,0,VALID,88.7325,VALID,0,VALID,23.8768,VALID,107,VALID,0.0851562,
2010-10-22, 02:19:04,VALID,997.558,VALID,0,VALID,88.7477,VALID,0,VALID,23.8768,VALID,107,VALID,0.0675781,
2010-10-22, 02:20:04,VALID,997.503,VALID,0,VALID,88.763,VALID,0,VALID,23.8768,VALID,107,VALID,0.053125,
2010-10-22, 02:21:04,VALID,997.496,VALID,0,VALID,88.7477,VALID,0,VALID,23.875,VALID,107,VALID,0.0757812,
2010-10-22, 02:22:04,VALID,997.519,VALID,0,VALID,88.7859,VALID,0,VALID,23.8768,VALID,107,VALID,0.205078,
2010-10-22, 02:23:04,VALID,997.512,VALID,0,VALID,88.7783,VALID,0,VALID,23.8963,VALID,107,VALID,0.214062,
2010-10-22, 02:24:04,VALID,997.515,VALID,0,VALID,88.7554,VALID,0,VALID,23.9372,VALID,107,VALID,0.197656,
2010-10-22, 02:25:04,VALID,997.53,VALID,0,VALID,88.7172,VALID,0,VALID,23.9159,VALID,107,VALID,0.106641,
2010-10-22, 02:26:04,VALID,997.553,VALID,0,VALID,88.6714,VALID,0,VALID,23.9354,VALID,107,VALID,0.152734,
2010-10-22, 02:27:04,VALID,997.584,VALID,0,VALID,88.5646,VALID,0,VALID,23.9159,VALID,107,VALID,0.304297,
2010-10-22, 02:28:04,VALID,997.63,VALID,0,VALID,88.2671,VALID,0,VALID,23.9354,VALID,116,VALID,0.716016,
2010-10-22, 02:29:04,VALID,997.616,VALID,0,VALID,88.0229,VALID,0,VALID,23.9744,VALID,116,VALID,0.654688,
2010-10-22, 02:30:04,VALID,997.622,VALID,0,VALID,87.6872,VALID,0,VALID,23.9939,VALID,117,VALID,0.664063,
2010-10-22, 02:31:04,VALID,997.642,VALID,0,VALID,87.0082,VALID,0,VALID,24.0329,VALID,121,VALID,1.08047,
2010-10-22, 02:32:04,VALID,997.632,VALID,0,VALID,86.4665,VALID,0,VALID,24.0915,VALID,127,VALID,0.923437,
2010-10-22, 02:33:04,VALID,997.645,VALID,0,VALID,86.3368,VALID,0,VALID,24.111,VALID,127,VALID,0.699609,
2010-10-22, 02:34:04,VALID,997.612,VALID,0,VALID,86.2681,VALID,0,VALID,24.15,VALID,127,VALID,0.585156,
2010-10-22, 02:35:04,VALID,997.641,VALID,0,VALID,85.3678,VALID,0,VALID,24.15,VALID,127,VALID,0.78125,
2010-10-22, 02:36:04,VALID,997.611,VALID,0,VALID,85.322,VALID,0,VALID,24.15,VALID,127,VALID,0.439063,
2010-10-22, 02:37:04,VALID,997.616,VALID,0,VALID,85.2229,VALID,0,VALID,24.1696,VALID,127,VALID,0.533984,
2010-10-22, 02:38:04,VALID,997.601,VALID,0,VALID,85.1389,VALID,0,VALID,24.1677,VALID,127,VALID,0.428516,
2010-10-22, 02:39:04,VALID,997.613,VALID,0,VALID,85.1694,VALID,0.112286,VALID,24.1677,VALID,127,VALID,0.408984,
2010-10-22, 02:40:04,VALID,997.614,VALID,0,VALID,85.6806,VALID,0,VALID,24.1677,VALID,127,VALID,0.423828,
2010-10-22, 02:41:04,VALID,997.636,VALID,0,VALID,85.7798,VALID,0,VALID,24.1677,VALID,127,VALID,0.117969,
2010-10-22, 02:42:04,VALID,997.653,VALID,0,VALID,85.6577,VALID,0,VALID,24.1287,VALID,127,VALID,0.132422,
2010-10-22, 02:43:04,VALID,997.658,VALID,0,VALID,85.8409,VALID,0,VALID,24.1092,VALID,127,VALID,0.242188,
2010-10-22, 02:44:04,VALID,997.695,VALID,0,VALID,85.4289,VALID,0,VALID,24.1092,VALID,127,VALID,0.393359,
2010-10-22, 02:45:04,VALID,997.684,VALID,0,VALID,84.8185,VALID,0,VALID,24.1287,VALID,149,VALID,0.784375,
2010-10-22, 02:46:04,VALID,997.721,VALID,0,VALID,84.5286,VALID,0,VALID,24.1305,VALID,146,VALID,0.488672,
2010-10-22, 02:47:04,VALID,997.689,VALID,0,VALID,84.4141,VALID,0,VALID,24.1287,VALID,146,VALID,0.734766,
2010-10-22, 02:48:04,VALID,997.682,VALID,0,VALID,84.1929,VALID,0,VALID,24.1482,VALID,146,VALID,0.776172,
2010-10-22, 02:49:04,VALID,997.63,VALID,0,VALID,84.2081,VALID,0,VALID,24.1872,VALID,146,VALID,0.649609,
2010-10-22, 02:50:04,VALID,997.625,VALID,0,VALID,84.2005,VALID,0.112286,VALID,24.1677,VALID,145,VALID,0.873828,
2010-10-22, 02:51:04,VALID,997.631,VALID,0,VALID,84.1852,VALID,0,VALID,24.1677,VALID,127,VALID,0.844141,
2010-10-22, 02:52:04,VALID,997.612,VALID,0,VALID,84.2463,VALID,0,VALID,24.1677,VALID,127,VALID,0.703906,
2010-10-22, 02:53:04,VALID,997.598,VALID,0,VALID,84.2157,VALID,0,VALID,24.15,VALID,134,VALID,0.445313,
2010-10-22, 02:54:04,VALID,997.598,VALID,0,VALID,84.2768,VALID,0,VALID,24.15,VALID,134,VALID,0.355469,
2010-10-22, 02:55:04,VALID,997.573,VALID,0,VALID,84.3226,VALID,0,VALID,24.15,VALID,134,VALID,0.341406,
2010-10-22, 02:56:04,VALID,997.582,VALID,0,VALID,84.4141,VALID,0,VALID,24.111,VALID,134,VALID,0.167578,
2010-10-22, 02:57:04,VALID,997.556,VALID,0,VALID,84.6964,VALID,0,VALID,24.0897,VALID,134,VALID,0.266797,
2010-10-22, 02:58:04,VALID,997.547,VALID,0,VALID,84.5515,VALID,0,VALID,24.0915,VALID,134,VALID,0.378516,
2010-10-22, 02:59:04,VALID,997.547,VALID,0,VALID,84.6735,VALID,0,VALID,24.0915,VALID,134,VALID,0.436328,
2010-10-22, 03:00:04,VALID,997.561,VALID,0,VALID,84.643,VALID,0,VALID,24.0915,VALID,134,VALID,0.577734,
2010-10-22, 03:01:04,VALID,997.54,VALID,0,VALID,84.6506,VALID,0,VALID,24.111,VALID,134,VALID,0.496875,
2010-10-22, 03:02:04,VALID,997.568,VALID,0,VALID,84.4294,VALID,0,VALID,24.1305,VALID,134,VALID,0.452344,
2010-10-22, 03:03:04,VALID,997.584,VALID,0,VALID,84.3455,VALID,0,VALID,24.15,VALID,105,VALID,0.648438,
2010-10-22, 03:04:04,VALID,997.591,VALID,0,VALID,84.3378,VALID,0,VALID,24.1696,VALID,110,VALID,0.432031,
2010-10-22, 03:05:04,VALID,997.602,VALID,0,VALID,84.498,VALID,0,VALID,24.1696,VALID,110,VALID,0.296875,
2010-10-22, 03:06:04,VALID,997.623,VALID,0,VALID,84.4294,VALID,0,VALID,24.1696,VALID,110,VALID,0.228906,
2010-10-22, 03:07:04,VALID,997.612,VALID,0,VALID,84.5057,VALID,0,VALID,24.1305,VALID,110,VALID,0.2375,
2010-10-22, 03:08:04,VALID,997.633,VALID,0,VALID,84.5591,VALID,0,VALID,24.111,VALID,110,VALID,0.258984,
2010-10-22, 03:09:04,VALID,997.596,VALID,0,VALID,84.6812,VALID,0,VALID,24.111,VALID,111,VALID,0.346484,
2010-10-22, 03:10:04,VALID,997.6,VALID,0,VALID,84.7193,VALID,0,VALID,24.0915,VALID,110,VALID,0.276953,
2010-10-22, 03:11:04,VALID,997.595,VALID,0,VALID,84.7193,VALID,0,VALID,24.111,VALID,111,VALID,0.413281,
2010-10-22, 03:12:04,VALID,997.614,VALID,0,VALID,84.6659,VALID,0,VALID,24.111,VALID,165,VALID,0.517969,
2010-10-22, 03:13:04,VALID,997.62,VALID,0,VALID,84.5896,VALID,0,VALID,24.1305,VALID,167,VALID,1.01563,
2010-10-22, 03:14:04,VALID,997.616,VALID,0,VALID,84.4599,VALID,0,VALID,24.1305,VALID,151,VALID,0.95625,
2010-10-22, 03:15:04,VALID,997.619,VALID,0,VALID,84.292,VALID,0,VALID,24.1696,VALID,150,VALID,0.860156,
2010-10-22, 03:16:04,VALID,997.64,VALID,0,VALID,84.1471,VALID,0,VALID,24.2104,VALID,150,VALID,0.711328,
2010-10-22, 03:17:04,VALID,997.653,VALID,0,VALID,84.231,VALID,0,VALID,24.1891,VALID,145,VALID,0.604297,
2010-10-22, 03:18:04,VALID,997.68,VALID,0,VALID,84.3149,VALID,0,VALID,24.1891,VALID,145,VALID,0.618359,
2010-10-22, 03:19:04,VALID,997.683,VALID,0,VALID,84.3683,VALID,0,VALID,24.1696,VALID,145,VALID,0.574609,
2010-10-22, 03:20:04,VALID,997.662,VALID,0,VALID,84.0021,VALID,0,VALID,24.1696,VALID,145,VALID,0.666016,
2010-10-22, 03:21:04,VALID,997.659,VALID,0,VALID,83.9411,VALID,0,VALID,24.15,VALID,162,VALID,0.761719,
2010-10-22, 03:22:04,VALID,997.665,VALID,0,VALID,84.0098,VALID,0,VALID,24.15,VALID,173,VALID,0.744141,
2010-10-22, 03:23:04,VALID,997.669,VALID,0,VALID,84.0555,VALID,0,VALID,24.1305,VALID,173,VALID,0.787109,
2010-10-22, 03:24:04,VALID,997.653,VALID,0,VALID,83.8419,VALID,0,VALID,24.1287,VALID,173,VALID,0.549609,
2010-10-22, 03:25:04,VALID,997.64,VALID,0,VALID,83.3917,VALID,0,VALID,24.1287,VALID,173,VALID,0.691406,
2010-10-22, 03:26:04,VALID,997.635,VALID,0,VALID,83.4452,VALID,0,VALID,24.1482,VALID,173,VALID,0.543359,
2010-10-22, 03:27:04,VALID,997.588,VALID,0,VALID,83.2773,VALID,0,VALID,24.1482,VALID,173,VALID,0.569141,
2010-10-22, 03:28:04,VALID,997.603,VALID,0,VALID,83.0484,VALID,0,VALID,24.1677,VALID,171,VALID,0.313672,
2010-10-22, 03:29:04,VALID,997.622,VALID,0,VALID,83.4223,VALID,0,VALID,24.1677,VALID,171,VALID,0.302344,
2010-10-22, 03:30:04,VALID,997.634,VALID,0,VALID,82.9798,VALID,0,VALID,24.15,VALID,122,VALID,0.658203,
2010-10-22, 03:31:04,VALID,997.594,VALID,0,VALID,83.2392,VALID,0,VALID,24.1677,VALID,103,VALID,0.601563,
2010-10-22, 03:32:04,VALID,997.583,VALID,0,VALID,83.1857,VALID,0,VALID,24.1482,VALID,103,VALID,0.758594,
2010-10-22, 03:33:04,VALID,997.567,VALID,0,VALID,83.5672,VALID,0,VALID,24.1482,VALID,103,VALID,0.7875,
2010-10-22, 03:34:04,VALID,997.602,VALID,0,VALID,83.88,VALID,0,VALID,24.1482,VALID,101,VALID,0.699219,
2010-10-22, 03:35:04,VALID,997.587,VALID,0,VALID,84.0708,VALID,0,VALID,24.1287,VALID,73,VALID,0.882813,
2010-10-22, 03:36:04,VALID,997.595,VALID,0,VALID,84.9024,VALID,0,VALID,24.0897,VALID,85,VALID,1.0082,
2010-10-22, 03:37:05,VALID,997.634,VALID,0,VALID,85.5586,VALID,0,VALID,24.0311,VALID,77,VALID,0.846484,
2010-10-22, 03:38:05,VALID,997.661,VALID,0,VALID,85.9782,VALID,0,VALID,23.9531,VALID,76,VALID,0.624609,
2010-10-22, 03:39:05,VALID,997.659,VALID,0,VALID,86.0926,VALID,0,VALID,23.8945,VALID,73,VALID,0.766797,
2010-10-22, 03:40:05,VALID,997.677,VALID,0,VALID,86.1689,VALID,0,VALID,23.836,VALID,73,VALID,0.694141,
2010-10-22, 03:41:05,VALID,997.702,VALID,0,VALID,86.4131,VALID,0,VALID,23.797,VALID,73,VALID,0.572266,
2010-10-22, 03:42:05,VALID,997.713,VALID,0,VALID,86.7488,VALID,0,VALID,23.7579,VALID,55,VALID,0.642187,
2010-10-22, 03:43:05,VALID,997.74,VALID,0,VALID,87.1303,VALID,0,VALID,23.7189,VALID,55,VALID,0.541797,
2010-10-22, 03:44:05,VALID,997.748,VALID,0,VALID,87.4965,VALID,0,VALID,23.6994,VALID,55,VALID,0.415234,
2010-10-22, 03:45:05,VALID,997.762,VALID,0,VALID,87.7788,VALID,0.112286,VALID,23.6799,VALID,55,VALID,0.371094,
2010-10-22, 03:46:05,VALID,997.78,VALID,0,VALID,88.0458,VALID,0,VALID,23.6604,VALID,55,VALID,0.143359,